Time,TemperatureF,DewpointF,PressureIn,WindDirection,WindDirectionDegrees,WindSpeedMPH,WindSpeedGustMPH,Humidity,HourlyPrecipIn,Conditions,Clouds,dailyrainin,SolarRadiationWatts/m^2,SoftwareType,DateUTC
2013-04-04 00:04:00,47.8,46.4,30.15,SSE,151,0.0,0.0,95,0.00,,,0.00,0,Wunderground v.1.15,2013-04-04 05:04:00,
2013-04-04 00:09:00,47.8,46.4,30.15,ESE,103,0.0,2.0,95,0.00,,,0.00,0,Wunderground v.1.15,2013-04-04 05:09:00,
2013-04-04 00:15:00,47.8,46.2,30.15,ESE,105,0.0,0.0,94,0.00,,,0.00,0,Wunderground v.1.15,2013-04-04 05:15:00,
2013-04-04 00:20:00,47.9,46.5,30.15,East,92,0.0,0.0,95,0.00,,,0.00,0,Wunderground v.1.15,2013-04-04 05:20:00,
2013-04-04 00:27:00,47.9,46.3,30.15,East,95,0.0,3.0,94,0.00,,,0.00,0,Wunderground v.1.15,2013-04-04 05:27:00,
2013-04-04 00:33:00,47.8,46.2,30.15,East,90,0.0,1.0,94,0.00,,,0.00,0,Wunderground v.1.15,2013-04-04 05:33:00,
2013-04-04 00:38:00,47.8,46.4,30.15,ENE,65,0.0,2.0,95,0.00,,,0.00,0,Wunderground v.1.15,2013-04-04 05:38:00,
2013-04-04 00:45:00,47.7,46.3,30.15,NE,44,0.0,2.0,95,0.00,,,0.00,0,Wunderground v.1.15,2013-04-04 05:45:00,
2013-04-04 00:51:00,47.6,46.2,30.15,East,96,0.0,0.0,95,0.00,,,0.00,0,Wunderground v.1.15,2013-04-04 05:51:00,
2013-04-04 00:57:00,47.6,46.2,30.15,SSE,163,0.0,1.0,95,0.00,,,0.00,0,Wunderground v.1.15,2013-04-04 05:57:00,
2013-04-04 01:02:00,47.5,46.1,30.15,ESE,105,0.0,0.0,95,0.00,,,0.00,0,Wunderground v.1.15,2013-04-04 06:02:00,
2013-04-04 01:08:00,47.5,46.1,30.14,East,85,0.0,1.0,95,0.00,,,0.00,0,Wunderground v.1.15,2013-04-04 06:08:00,
2013-04-04 01:15:00,47.4,46.0,30.14,East,82,0.0,0.0,95,0.00,,,0.00,0,Wunderground v.1.15,2013-04-04 06:15:00,
2013-04-04 01:21:00,47.4,45.8,30.14,ENE,74,0.0,1.0,94,0.00,,,0.00,0,Wunderground v.1.15,2013-04-04 06:21:00,
2013-04-04 01:27:00,47.4,45.8,30.14,ENE,70,0.0,2.0,94,0.00,,,0.00,0,Wunderground v.1.15,2013-04-04 06:27:00,
2013-04-04 01:32:00,47.4,45.5,30.14,ESE,105,1.0,1.0,93,0.00,,,0.00,0,Wunderground v.1.15,2013-04-04 06:32:00,
2013-04-04 01:37:00,47.4,45.8,30.14,ESE,104,0.0,1.0,94,0.00,,,0.00,0,Wunderground v.1.15,2013-04-04 06:37:00,
2013-04-04 01:43:00,47.3,45.7,30.14,East,79,0.0,1.0,94,0.00,,,0.00,0,Wunderground v.1.15,2013-04-04 06:43:00,
2013-04-04 01:49:00,47.3,45.7,30.14,East,89,0.0,2.0,94,0.00,,,0.00,0,Wunderground v.1.15,2013-04-04 06:49:00,
2013-04-04 01:54:00,47.2,45.6,30.14,SSE,155,1.0,1.0,94,0.00,,,0.00,0,Wunderground v.1.15,2013-04-04 06:54:00,
2013-04-04 02:00:00,47.2,45.6,30.14,East,82,1.0,5.0,94,0.00,,,0.00,0,Wunderground v.1.15,2013-04-04 07:00:00,
2013-04-04 02:06:00,47.1,45.5,30.14,East,83,0.0,5.0,94,0.00,,,0.00,0,Wunderground v.1.15,2013-04-04 07:06:00,
2013-04-04 02:12:00,47.1,45.5,30.14,ENE,77,0.0,0.0,94,0.00,,,0.00,0,Wunderground v.1.15,2013-04-04 07:12:00,
2013-04-04 02:18:00,47.0,45.4,30.14,ESE,123,0.0,2.0,94,0.00,,,0.00,0,Wunderground v.1.15,2013-04-04 07:18:00,
2013-04-04 02:24:00,47.0,45.4,30.14,East,81,1.0,1.0,94,0.00,,,0.00,0,Wunderground v.1.15,2013-04-04 07:24:00,
2013-04-04 02:30:00,47.0,45.4,30.14,East,82,0.0,0.0,94,0.00,,,0.00,0,Wunderground v.1.15,2013-04-04 07:30:00,
2013-04-04 02:36:00,47.0,45.4,30.13,East,82,0.0,0.0,94,0.00,,,0.00,0,Wunderground v.1.15,2013-04-04 07:36:00,
2013-04-04 02:42:00,47.0,45.6,30.13,East,82,0.0,0.0,95,0.00,,,0.00,0,Wunderground v.1.15,2013-04-04 07:42:00,
2013-04-04 02:47:00,47.0,45.1,30.13,ESE,114,0.0,3.0,93,0.00,,,0.00,0,Wunderground v.1.15,2013-04-04 07:47:00,
2013-04-04 02:52:00,46.9,45.0,30.13,ENE,73,0.0,0.0,93,0.00,,,0.00,0,Wunderground v.1.15,2013-04-04 07:52:00,
2013-04-04 02:58:00,46.9,45.0,30.13,East,86,0.0,0.0,93,0.00,,,0.00,0,Wunderground v.1.15,2013-04-04 07:58:00,
2013-04-04 03:04:00,46.8,44.9,30.13,ENE,75,0.0,1.0,93,0.00,,,0.00,0,Wunderground v.1.15,2013-04-04 08:04:00,
2013-04-04 03:10:00,46.8,45.2,30.12,ENE,71,0.0,1.0,94,0.00,,,0.00,0,Wunderground v.1.15,2013-04-04 08:10:00,
2013-04-04 03:15:00,46.8,45.2,30.12,ENE,71,0.0,1.0,94,0.00,,,0.00,0,Wunderground v.1.15,2013-04-04 08:15:00,
2013-04-04 03:22:00,46.7,45.1,30.12,WNW,282,0.0,2.0,94,0.00,,,0.00,0,Wunderground v.1.15,2013-04-04 08:22:00,
2013-04-04 03:28:00,46.7,45.1,30.12,West,264,0.0,2.0,94,0.00,,,0.00,0,Wunderground v.1.15,2013-04-04 08:28:00,
2013-04-04 03:34:00,46.7,45.1,30.12,SE,124,0.0,1.0,94,0.00,,,0.00,0,Wunderground v.1.15,2013-04-04 08:34:00,
2013-04-04 03:39:00,46.6,45.0,30.12,East,90,0.0,1.0,94,0.00,,,0.00,0,Wunderground v.1.15,2013-04-04 08:39:00,
2013-04-04 03:44:00,46.5,44.6,30.12,SE,124,0.0,5.0,93,0.00,,,0.00,0,Wunderground v.1.15,2013-04-04 08:44:00,
2013-04-04 03:49:00,46.5,44.6,30.12,SE,142,0.0,5.0,93,0.00,,,0.00,0,Wunderground v.1.15,2013-04-04 08:49:00,
2013-04-04 03:55:00,46.5,44.6,30.12,ESE,111,0.0,1.0,93,0.00,,,0.00,0,Wunderground v.1.15,2013-04-04 08:55:00,
2013-04-04 04:01:00,46.4,44.5,30.11,East,101,0.0,2.0,93,0.00,,,0.00,0,Wunderground v.1.15,2013-04-04 09:01:00,
2013-04-04 04:07:00,46.4,44.5,30.11,ESE,122,0.0,2.0,93,0.00,,,0.00,0,Wunderground v.1.15,2013-04-04 09:07:00,
2013-04-04 04:13:00,46.4,44.5,30.11,ESE,121,0.0,1.0,93,0.00,,,0.00,0,Wunderground v.1.15,2013-04-04 09:13:00,
2013-04-04 04:19:00,46.4,44.5,30.12,ESE,121,0.0,1.0,93,0.00,,,0.00,0,Wunderground v.1.15,2013-04-04 09:19:00,
2013-04-04 04:24:00,46.4,44.8,30.11,WSW,239,0.0,0.0,94,0.00,,,0.00,0,Wunderground v.1.15,2013-04-04 09:24:00,
2013-04-04 04:30:00,46.4,44.2,30.12,East,96,0.0,1.0,92,0.00,,,0.00,0,Wunderground v.1.15,2013-04-04 09:30:00,
2013-04-04 04:35:00,46.3,44.1,30.12,SSE,161,0.0,2.0,92,0.00,,,0.00,0,Wunderground v.1.15,2013-04-04 09:35:00,
2013-04-04 04:42:00,46.3,44.1,30.12,ESE,120,0.0,0.0,92,0.00,,,0.00,0,Wunderground v.1.15,2013-04-04 09:42:00,
2013-04-04 04:48:00,46.3,44.1,30.12,SSE,157,0.0,3.0,92,0.00,,,0.00,0,Wunderground v.1.15,2013-04-04 09:48:00,
2013-04-04 04:53:00,46.3,44.1,30.12,East,79,0.0,1.0,92,0.00,,,0.00,0,Wunderground v.1.15,2013-04-04 09:53:00,
2013-04-04 05:00:00,46.2,44.0,30.12,SSE,162,0.0,0.0,92,0.00,,,0.00,0,Wunderground v.1.15,2013-04-04 10:00:00,
2013-04-04 05:05:00,46.2,43.7,30.12,ESE,115,0.0,3.0,91,0.00,,,0.00,0,Wunderground v.1.15,2013-04-04 10:05:00,
2013-04-04 05:10:00,46.1,43.6,30.12,ESE,113,0.0,0.0,91,0.00,,,0.00,0,Wunderground v.1.15,2013-04-04 10:10:00,
2013-04-04 05:17:00,46.0,43.5,30.11,East,100,0.0,1.0,91,0.00,,,0.00,0,Wunderground v.1.15,2013-04-04 10:17:00,
2013-04-04 05:22:00,46.0,43.8,30.12,East,92,0.0,0.0,92,0.00,,,0.00,0,Wunderground v.1.15,2013-04-04 10:22:00,
2013-04-04 05:27:00,46.0,44.1,30.12,East,92,0.0,0.0,93,0.00,,,0.00,0,Wunderground v.1.15,2013-04-04 10:27:00,
2013-04-04 05:32:00,45.9,43.7,30.12,East,92,0.0,1.0,92,0.00,,,0.00,0,Wunderground v.1.15,2013-04-04 10:32:00,
2013-04-04 05:38:00,45.9,43.7,30.12,East,84,0.0,1.0,92,0.00,,,0.00,0,Wunderground v.1.15,2013-04-04 10:38:00,
2013-04-04 05:43:00,45.9,43.7,30.13,East,81,0.0,2.0,92,0.00,,,0.00,0,Wunderground v.1.15,2013-04-04 10:43:00,
2013-04-04 05:49:00,45.9,43.7,30.13,East,81,0.0,2.0,92,0.00,,,0.00,0,Wunderground v.1.15,2013-04-04 10:49:00,
2013-04-04 05:54:00,46.0,44.1,30.13,East,100,0.0,1.0,93,0.00,,,0.00,0,Wunderground v.1.15,2013-04-04 10:54:00,
2013-04-04 06:00:00,46.0,43.8,30.14,SE,140,0.0,0.0,92,0.00,,,0.00,0,Wunderground v.1.15,2013-04-04 11:00:00,
2013-04-04 06:07:00,46.0,43.8,30.14,SSE,159,0.0,3.0,92,0.00,,,0.01,0,Wunderground v.1.15,2013-04-04 11:07:00,
2013-04-04 06:12:00,46.0,43.8,30.14,ENE,76,0.0,1.0,92,0.00,,,0.01,0,Wunderground v.1.15,2013-04-04 11:12:00,
2013-04-04 06:18:00,46.0,43.8,30.14,South,186,0.0,1.0,92,0.00,,,0.01,0,Wunderground v.1.15,2013-04-04 11:18:00,
2013-04-04 06:23:00,45.9,43.4,30.14,East,90,0.0,1.0,91,0.00,,,0.01,0,Wunderground v.1.15,2013-04-04 11:23:00,
2013-04-04 06:29:00,45.9,43.4,30.14,SSE,161,1.0,2.0,91,0.00,,,0.01,0,Wunderground v.1.15,2013-04-04 11:29:00,
2013-04-04 06:35:00,45.9,43.1,30.14,SE,129,0.0,1.0,90,0.00,,,0.01,0,Wunderground v.1.15,2013-04-04 11:35:00,
2013-04-04 06:42:00,45.9,43.4,30.14,SSW,199,0.0,1.0,91,0.00,,,0.01,0,Wunderground v.1.15,2013-04-04 11:42:00,
2013-04-04 06:47:00,45.8,43.3,30.14,South,171,0.0,1.0,91,0.00,,,0.01,0,Wunderground v.1.15,2013-04-04 11:47:00,
2013-04-04 06:53:00,45.8,43.3,30.14,SSE,166,0.0,0.0,91,0.00,,,0.01,0,Wunderground v.1.15,2013-04-04 11:53:00,
2013-04-04 06:58:00,45.8,43.6,30.14,SSE,166,0.0,0.0,92,0.00,,,0.01,0,Wunderground v.1.15,2013-04-04 11:58:00,
2013-04-04 07:03:00,45.7,43.5,30.15,SSE,166,0.0,0.0,92,0.00,,,0.01,0,Wunderground v.1.15,2013-04-04 12:03:00,
2013-04-04 07:10:00,45.7,43.5,30.15,SSE,161,0.0,0.0,92,0.00,,,0.01,0,Wunderground v.1.15,2013-04-04 12:10:00,
2013-04-04 07:16:00,45.7,43.2,30.15,NE,35,0.0,0.0,91,0.00,,,0.01,0,Wunderground v.1.15,2013-04-04 12:16:00,
2013-04-04 07:22:00,45.6,43.1,30.16,East,101,0.0,0.0,91,0.00,,,0.01,0,Wunderground v.1.15,2013-04-04 12:22:00,
2013-04-04 07:27:00,45.6,43.1,30.16,East,101,0.0,0.0,91,0.00,,,0.01,0,Wunderground v.1.15,2013-04-04 12:27:00,
2013-04-04 07:32:00,45.6,43.1,30.16,SW,229,0.0,0.0,91,0.00,,,0.01,5,Wunderground v.1.15,2013-04-04 12:32:00,
2013-04-04 07:38:00,45.6,42.8,30.17,SE,142,0.0,1.0,90,0.00,,,0.01,7,Wunderground v.1.15,2013-04-04 12:38:00,
2013-04-04 07:43:00,45.5,42.7,30.17,ENE,71,0.0,1.0,90,0.00,,,0.01,11,Wunderground v.1.15,2013-04-04 12:43:00,
2013-04-04 07:50:00,45.5,42.7,30.18,WSW,238,0.0,0.0,90,0.00,,,0.01,12,Wunderground v.1.15,2013-04-04 12:50:00,
2013-04-04 07:55:00,45.5,42.2,30.18,South,184,0.0,0.0,88,0.00,,,0.01,14,Wunderground v.1.15,2013-04-04 12:55:00,
2013-04-04 08:01:00,45.5,42.2,30.18,SSW,201,0.0,0.0,88,0.00,,,0.01,12,Wunderground v.1.15,2013-04-04 13:01:00,
2013-04-04 08:07:00,45.5,42.2,30.18,ESE,109,0.0,1.0,88,0.00,,,0.01,12,Wunderground v.1.15,2013-04-04 13:07:00,
2013-04-04 08:12:00,45.4,42.1,30.19,ENE,78,0.0,1.0,88,0.00,,,0.01,12,Wunderground v.1.15,2013-04-04 13:12:00,
2013-04-04 08:18:00,45.3,42.0,30.19,SSW,199,0.0,1.0,88,0.00,,,0.01,16,Wunderground v.1.15,2013-04-04 13:18:00,
2013-04-04 08:25:00,45.3,42.0,30.19,East,90,0.0,1.0,88,0.00,,,0.01,19,Wunderground v.1.15,2013-04-04 13:25:00,
2013-04-04 08:30:00,45.2,42.2,30.20,East,95,0.0,0.0,89,0.00,,,0.01,23,Wunderground v.1.15,2013-04-04 13:30:00,
2013-04-04 08:37:00,45.2,41.3,30.19,SSE,153,0.0,4.0,86,0.00,,,0.01,28,Wunderground v.1.15,2013-04-04 13:37:00,
2013-04-04 08:43:00,45.2,41.6,30.20,ESE,118,0.0,1.0,87,0.00,,,0.01,33,Wunderground v.1.15,2013-04-04 13:43:00,
2013-04-04 08:48:00,45.2,41.6,30.20,ESE,115,0.0,1.0,87,0.00,,,0.01,60,Wunderground v.1.15,2013-04-04 13:48:00,
2013-04-04 08:53:00,45.2,41.3,30.20,ENE,71,0.0,1.0,86,0.00,,,0.01,54,Wunderground v.1.15,2013-04-04 13:53:00,
2013-04-04 08:58:00,45.4,41.2,30.20,SW,227,0.0,2.0,85,0.00,,,0.01,60,Wunderground v.1.15,2013-04-04 13:58:00,
2013-04-04 09:03:00,45.4,41.2,30.21,South,179,0.0,1.0,85,0.00,,,0.01,63,Wunderground v.1.15,2013-04-04 14:03:00,
2013-04-04 09:08:00,45.4,40.8,30.21,South,184,0.0,2.0,84,0.00,,,0.01,70,Wunderground v.1.15,2013-04-04 14:08:00,
2013-04-04 09:14:00,45.4,40.8,30.21,ESE,103,0.0,2.0,84,0.00,,,0.01,58,Wunderground v.1.15,2013-04-04 14:14:00,
2013-04-04 09:19:00,45.4,40.8,30.21,East,101,0.0,2.0,84,0.00,,,0.01,63,Wunderground v.1.15,2013-04-04 14:19:00,
2013-04-04 09:25:00,45.4,41.2,30.22,SE,129,0.0,4.0,85,0.00,,,0.01,72,Wunderground v.1.15,2013-04-04 14:25:00,
2013-04-04 09:31:00,45.3,40.7,30.22,ENE,76,0.0,1.0,84,0.00,,,0.01,76,Wunderground v.1.15,2013-04-04 14:31:00,
2013-04-04 09:37:00,45.3,40.7,30.22,ESE,123,1.0,1.0,84,0.00,,,0.01,65,Wunderground v.1.15,2013-04-04 14:37:00,
2013-04-04 09:43:00,45.2,41.3,30.22,SSW,194,1.0,1.0,86,0.00,,,0.01,63,Wunderground v.1.15,2013-04-04 14:43:00,
2013-04-04 09:48:00,45.2,41.0,30.22,ENE,61,1.0,1.0,85,0.00,,,0.01,83,Wunderground v.1.15,2013-04-04 14:48:00,
2013-04-04 09:54:00,45.3,41.1,30.22,ENE,77,0.0,1.0,85,0.00,,,0.01,83,Wunderground v.1.15,2013-04-04 14:54:00,
2013-04-04 10:01:00,45.5,40.9,30.22,SE,126,0.0,0.0,84,0.00,,,0.01,93,Wunderground v.1.15,2013-04-04 15:01:00,
2013-04-04 10:07:00,45.6,40.7,30.22,NE,53,1.0,3.0,83,0.00,,,0.01,127,Wunderground v.1.15,2013-04-04 15:07:00,
2013-04-04 10:13:00,45.9,40.7,30.22,NE,49,1.0,2.0,82,0.00,,,0.01,135,Wunderground v.1.15,2013-04-04 15:13:00,
2013-04-04 10:19:00,46.1,40.9,30.22,SE,124,1.0,2.0,82,0.00,,,0.01,139,Wunderground v.1.15,2013-04-04 15:19:00,
2013-04-04 10:24:00,46.2,41.0,30.22,NE,55,1.0,1.0,82,0.00,,,0.01,146,Wunderground v.1.15,2013-04-04 15:24:00,
2013-04-04 10:30:00,46.4,40.9,30.22,East,82,1.0,1.0,81,0.00,,,0.01,149,Wunderground v.1.15,2013-04-04 15:30:00,
2013-04-04 10:35:00,46.6,41.4,30.23,ESE,105,1.0,3.0,82,0.00,,,0.01,176,Wunderground v.1.15,2013-04-04 15:35:00,
2013-04-04 10:41:00,46.8,41.6,30.23,ESE,107,1.0,2.0,82,0.00,,,0.01,167,Wunderground v.1.15,2013-04-04 15:41:00,
2013-04-04 10:47:00,46.8,41.3,30.23,NNE,13,1.0,3.0,81,0.00,,,0.01,120,Wunderground v.1.15,2013-04-04 15:47:00,
2013-04-04 10:53:00,46.6,41.1,30.23,SSE,165,1.0,2.0,81,0.00,,,0.01,118,Wunderground v.1.15,2013-04-04 15:53:00,
2013-04-04 10:58:00,46.7,41.8,30.23,SE,134,1.0,2.0,83,0.00,,,0.01,283,Wunderground v.1.15,2013-04-04 15:58:00,
2013-04-04 11:04:00,47.5,41.6,30.23,SW,229,1.0,4.0,80,0.00,,,0.01,429,Wunderground v.1.15,2013-04-04 16:04:00,
2013-04-04 11:09:00,48.5,42.6,30.23,ESE,106,1.0,4.0,80,0.00,,,0.01,476,Wunderground v.1.15,2013-04-04 16:09:00,
2013-04-04 11:15:00,49.5,42.6,30.23,East,83,1.0,2.0,77,0.00,,,0.01,338,Wunderground v.1.15,2013-04-04 16:15:00,
2013-04-04 11:21:00,49.6,42.3,30.23,WSW,238,1.0,1.0,76,0.00,,,0.01,218,Wunderground v.1.15,2013-04-04 16:21:00,
2013-04-04 11:27:00,49.1,41.5,30.23,WSW,257,1.0,2.0,75,0.00,,,0.01,225,Wunderground v.1.15,2013-04-04 16:27:00,
2013-04-04 11:33:00,48.7,41.5,30.24,SSW,204,1.0,4.0,76,0.00,,,0.01,165,Wunderground v.1.15,2013-04-04 16:33:00,
2013-04-04 11:38:00,48.4,41.5,30.24,SW,225,1.0,4.0,77,0.00,,,0.01,132,Wunderground v.1.15,2013-04-04 16:38:00,
2013-04-04 11:44:00,48.3,42.4,30.24,SW,223,0.0,2.0,80,0.00,,,0.01,151,Wunderground v.1.15,2013-04-04 16:44:00,
2013-04-04 11:49:00,48.4,41.9,30.24,SSW,200,0.0,2.0,78,0.00,,,0.01,151,Wunderground v.1.15,2013-04-04 16:49:00,
2013-04-04 11:55:00,48.5,42.0,30.24,SE,143,1.0,2.0,78,0.00,,,0.01,176,Wunderground v.1.15,2013-04-04 16:55:00,
2013-04-04 12:00:00,48.6,41.7,30.24,East,90,1.0,2.0,77,0.00,,,0.01,178,Wunderground v.1.15,2013-04-04 17:00:00,
2013-04-04 12:07:00,48.8,42.6,30.24,SE,132,0.0,2.0,79,0.00,,,0.01,178,Wunderground v.1.15,2013-04-04 17:07:00,
2013-04-04 12:13:00,48.9,41.7,30.24,East,94,1.0,4.0,76,0.00,,,0.01,160,Wunderground v.1.15,2013-04-04 17:13:00,
2013-04-04 12:19:00,48.9,42.0,30.23,East,88,1.0,4.0,77,0.00,,,0.01,230,Wunderground v.1.15,2013-04-04 17:19:00,
2013-04-04 12:25:00,49.2,42.0,30.23,WSW,245,1.0,3.0,76,0.00,,,0.01,213,Wunderground v.1.15,2013-04-04 17:25:00,
2013-04-04 12:30:00,49.6,42.0,30.23,ESE,106,1.0,1.0,75,0.00,,,0.01,258,Wunderground v.1.15,2013-04-04 17:30:00,
2013-04-04 12:36:00,49.9,42.6,30.23,South,178,1.0,2.0,76,0.00,,,0.01,221,Wunderground v.1.15,2013-04-04 17:36:00,
2013-04-04 12:41:00,50.0,42.4,30.23,WSW,254,1.0,2.0,75,0.00,,,0.01,232,Wunderground v.1.15,2013-04-04 17:41:00,
2013-04-04 12:46:00,49.8,41.5,30.23,South,188,1.0,5.0,73,0.00,,,0.01,229,Wunderground v.1.15,2013-04-04 17:46:00,
2013-04-04 12:52:00,49.8,42.2,30.22,SW,223,1.0,3.0,75,0.00,,,0.01,348,Wunderground v.1.15,2013-04-04 17:52:00,
2013-04-04 12:57:00,50.1,42.1,30.22,South,186,1.0,3.0,74,0.00,,,0.01,294,Wunderground v.1.15,2013-04-04 17:57:00,
2013-04-04 13:03:00,50.5,42.5,30.22,SE,133,1.0,1.0,74,0.00,,,0.01,285,Wunderground v.1.15,2013-04-04 18:03:00,
2013-04-04 13:08:00,50.8,42.8,30.22,SSE,165,1.0,5.0,74,0.00,,,0.01,306,Wunderground v.1.15,2013-04-04 18:08:00,
2013-04-04 13:13:00,51.1,42.4,30.22,ENE,67,1.0,3.0,72,0.00,,,0.01,355,Wunderground v.1.15,2013-04-04 18:13:00,
2013-04-04 13:20:00,51.6,43.2,30.21,West,277,1.0,1.0,73,0.00,,,0.01,388,Wunderground v.1.15,2013-04-04 18:20:00,
2013-04-04 13:26:00,52.1,43.0,30.21,SSW,192,1.0,3.0,71,0.00,,,0.01,359,Wunderground v.1.15,2013-04-04 18:26:00,
2013-04-04 13:32:00,52.0,42.9,30.20,West,273,2.0,2.0,71,0.00,,,0.01,438,Wunderground v.1.15,2013-04-04 18:32:00,
2013-04-04 13:37:00,52.5,43.0,30.20,East,81,1.0,2.0,70,0.00,,,0.01,513,Wunderground v.1.15,2013-04-04 18:37:00,
2013-04-04 13:42:00,53.0,43.8,30.19,WSW,239,1.0,5.0,71,0.00,,,0.01,462,Wunderground v.1.15,2013-04-04 18:42:00,
2013-04-04 13:47:00,53.3,43.0,30.19,SSW,209,1.0,5.0,68,0.00,,,0.01,415,Wunderground v.1.15,2013-04-04 18:47:00,
2013-04-04 13:53:00,53.5,42.8,30.19,East,101,1.0,3.0,67,0.00,,,0.01,452,Wunderground v.1.15,2013-04-04 18:53:00,
2013-04-04 13:59:00,53.7,43.0,30.19,ENE,77,1.0,3.0,67,0.00,,,0.01,445,Wunderground v.1.15,2013-04-04 18:59:00,
2013-04-04 14:05:00,54.1,43.4,30.19,South,186,1.0,2.0,67,0.00,,,0.01,459,Wunderground v.1.15,2013-04-04 19:05:00,
2013-04-04 14:11:00,54.0,43.3,30.19,West,268,2.0,2.0,67,0.00,,,0.01,494,Wunderground v.1.15,2013-04-04 19:11:00,
2013-04-04 14:16:00,54.4,43.7,30.18,WSW,248,2.0,2.0,67,0.00,,,0.01,506,Wunderground v.1.15,2013-04-04 19:16:00,
2013-04-04 14:22:00,54.7,43.6,30.18,East,87,1.0,2.0,66,0.00,,,0.01,1023,Wunderground v.1.15,2013-04-04 19:22:00,
2013-04-04 14:27:00,55.6,44.4,30.18,North,351,1.0,5.0,66,0.00,,,0.01,517,Wunderground v.1.15,2013-04-04 19:27:00,
2013-04-04 14:32:00,56.3,43.9,30.18,ESE,108,1.0,6.0,63,0.00,,,0.01,438,Wunderground v.1.15,2013-04-04 19:32:00,
2013-04-04 14:37:00,55.9,43.5,30.17,ESE,112,2.0,6.0,63,0.00,,,0.01,443,Wunderground v.1.15,2013-04-04 19:37:00,
2013-04-04 14:43:00,55.5,43.9,30.17,ESE,109,2.0,5.0,65,0.00,,,0.01,541,Wunderground v.1.15,2013-04-04 19:43:00,
2013-04-04 14:49:00,55.7,43.7,30.17,East,81,2.0,5.0,64,0.00,,,0.01,487,Wunderground v.1.15,2013-04-04 19:49:00,
2013-04-04 14:54:00,55.9,43.5,30.17,ESE,116,2.0,3.0,63,0.00,,,0.01,527,Wunderground v.1.15,2013-04-04 19:54:00,
2013-04-04 14:59:00,55.9,43.9,30.17,SW,226,1.0,3.0,64,0.00,,,0.01,420,Wunderground v.1.15,2013-04-04 19:59:00,
2013-04-04 15:05:00,55.9,44.3,30.17,SSW,196,1.0,4.0,65,0.00,,,0.01,431,Wunderground v.1.15,2013-04-04 20:05:00,
2013-04-04 15:10:00,56.3,44.7,30.16,SW,229,1.0,2.0,65,0.00,,,0.01,719,Wunderground v.1.15,2013-04-04 20:10:00,
2013-04-04 15:16:00,56.4,45.2,30.16,SSE,153,1.0,4.0,66,0.00,,,0.01,527,Wunderground v.1.15,2013-04-04 20:16:00,
2013-04-04 15:21:00,56.7,44.7,30.16,ESE,107,1.0,3.0,64,0.00,,,0.01,513,Wunderground v.1.15,2013-04-04 20:21:00,
2013-04-04 15:27:00,56.5,43.6,30.16,SSW,201,1.0,3.0,62,0.00,,,0.01,450,Wunderground v.1.15,2013-04-04 20:27:00,
2013-04-04 15:33:00,56.9,43.2,30.16,East,98,1.0,2.0,60,0.00,,,0.01,394,Wunderground v.1.15,2013-04-04 20:33:00,
2013-04-04 15:40:00,57.5,44.6,30.16,East,93,1.0,5.0,62,0.00,,,0.01,626,Wunderground v.1.15,2013-04-04 20:40:00,
2013-04-04 15:46:00,57.6,46.3,30.16,ESE,111,1.0,5.0,66,0.00,,,0.01,306,Wunderground v.1.15,2013-04-04 20:46:00,
2013-04-04 15:52:00,56.9,44.4,30.15,SE,127,2.0,2.0,63,0.00,,,0.01,364,Wunderground v.1.15,2013-04-04 20:52:00,
2013-04-04 15:58:00,56.9,44.4,30.15,ESE,121,1.0,3.0,63,0.00,,,0.01,383,Wunderground v.1.15,2013-04-04 20:58:00,
2013-04-04 16:04:00,57.1,45.0,30.15,East,98,1.0,2.0,64,0.00,,,0.01,313,Wunderground v.1.15,2013-04-04 21:04:00,
2013-04-04 16:09:00,57.2,44.7,30.14,East,101,1.0,2.0,63,0.00,,,0.01,390,Wunderground v.1.15,2013-04-04 21:09:00,
2013-04-04 16:15:00,58.1,45.6,30.14,SE,132,2.0,4.0,63,0.00,,,0.01,766,Wunderground v.1.15,2013-04-04 21:15:00,
2013-04-04 16:20:00,58.0,45.0,30.14,South,190,1.0,1.0,62,0.00,,,0.01,336,Wunderground v.1.15,2013-04-04 21:20:00,
2013-04-04 16:25:00,58.0,44.2,30.14,ESE,106,1.0,3.0,60,0.00,,,0.01,220,Wunderground v.1.15,2013-04-04 21:25:00,
2013-04-04 16:32:00,57.8,44.4,30.14,ESE,117,1.0,2.0,61,0.00,,,0.01,675,Wunderground v.1.15,2013-04-04 21:32:00,
2013-04-04 16:38:00,58.3,45.3,30.14,East,90,1.0,2.0,62,0.00,,,0.01,308,Wunderground v.1.15,2013-04-04 21:38:00,
2013-04-04 16:44:00,57.8,44.4,30.14,ESE,112,1.0,3.0,61,0.00,,,0.01,221,Wunderground v.1.15,2013-04-04 21:44:00,
2013-04-04 16:50:00,57.9,44.5,30.14,SE,128,1.0,1.0,61,0.00,,,0.01,281,Wunderground v.1.15,2013-04-04 21:50:00,
2013-04-04 16:55:00,58.3,45.3,30.14,ESE,103,1.0,3.0,62,0.00,,,0.01,737,Wunderground v.1.15,2013-04-04 21:55:00,
2013-04-04 17:02:00,58.3,45.3,30.13,ESE,120,2.0,2.0,62,0.00,,,0.01,656,Wunderground v.1.15,2013-04-04 22:02:00,
2013-04-04 17:07:00,58.5,45.5,30.13,SE,133,2.0,2.0,62,0.00,,,0.01,589,Wunderground v.1.15,2013-04-04 22:07:00,
2013-04-04 17:13:00,58.7,44.8,30.13,SE,135,2.0,3.0,60,0.00,,,0.01,151,Wunderground v.1.15,2013-04-04 22:13:00,
2013-04-04 17:18:00,58.7,45.3,30.13,East,93,1.0,3.0,61,0.00,,,0.01,540,Wunderground v.1.15,2013-04-04 22:18:00,
2013-04-04 17:23:00,59.0,45.6,30.13,ENE,59,1.0,2.0,61,0.00,,,0.01,494,Wunderground v.1.15,2013-04-04 22:23:00,
2013-04-04 17:29:00,59.1,45.7,30.13,East,88,1.0,3.0,61,0.00,,,0.01,457,Wunderground v.1.15,2013-04-04 22:29:00,
2013-04-04 17:35:00,59.2,46.2,30.13,East,97,1.0,2.0,62,0.00,,,0.01,359,Wunderground v.1.15,2013-04-04 22:35:00,
2013-04-04 17:40:00,59.3,45.8,30.13,East,96,1.0,2.0,61,0.00,,,0.01,424,Wunderground v.1.15,2013-04-04 22:40:00,
2013-04-04 17:45:00,59.3,46.3,30.13,East,84,1.0,2.0,62,0.00,,,0.01,432,Wunderground v.1.15,2013-04-04 22:45:00,
2013-04-04 17:50:00,59.4,45.5,30.13,ESE,104,1.0,3.0,60,0.00,,,0.01,380,Wunderground v.1.15,2013-04-04 22:50:00,
2013-04-04 17:55:00,59.1,45.7,30.13,East,94,1.0,3.0,61,0.00,,,0.01,353,Wunderground v.1.15,2013-04-04 22:55:00,
2013-04-04 18:00:00,58.7,45.3,30.13,East,92,1.0,3.0,61,0.00,,,0.01,338,Wunderground v.1.15,2013-04-04 23:00:00,
2013-04-04 18:05:00,58.7,45.7,30.13,ESE,103,1.0,3.0,62,0.00,,,0.01,316,Wunderground v.1.15,2013-04-04 23:05:00,
2013-04-04 18:11:00,58.6,45.6,30.13,East,101,1.0,3.0,62,0.00,,,0.01,294,Wunderground v.1.15,2013-04-04 23:11:00,
2013-04-04 18:16:00,58.2,45.2,30.13,East,89,1.0,3.0,62,0.00,,,0.01,272,Wunderground v.1.15,2013-04-04 23:16:00,
2013-04-04 18:22:00,58.0,45.0,30.13,East,85,1.0,1.0,62,0.00,,,0.01,181,Wunderground v.1.15,2013-04-04 23:22:00,
2013-04-04 18:27:00,57.8,45.7,30.13,ENE,69,1.0,2.0,64,0.00,,,0.01,232,Wunderground v.1.15,2013-04-04 23:27:00,
2013-04-04 18:33:00,57.6,45.1,30.13,East,94,1.0,2.0,63,0.00,,,0.01,209,Wunderground v.1.15,2013-04-04 23:33:00,
2013-04-04 18:40:00,57.3,45.6,30.13,East,81,1.0,1.0,65,0.00,,,0.01,179,Wunderground v.1.15,2013-04-04 23:40:00,
2013-04-04 18:47:00,56.9,45.7,30.13,East,95,1.0,2.0,66,0.00,,,0.01,149,Wunderground v.1.15,2013-04-04 23:47:00,
2013-04-04 18:53:00,56.5,45.3,30.13,SW,225,1.0,3.0,66,0.00,,,0.01,123,Wunderground v.1.15,2013-04-04 23:53:00,
2013-04-04 18:59:00,56.2,45.0,30.14,East,88,0.0,3.0,66,0.00,,,0.01,74,Wunderground v.1.15,2013-04-04 23:59:00,
2013-04-04 19:04:00,55.8,45.0,30.13,ESE,104,0.0,1.0,67,0.00,,,0.01,63,Wunderground v.1.15,2013-04-05 00:04:00,
2013-04-04 19:10:00,55.4,45.0,30.13,East,95,0.0,0.0,68,0.00,,,0.01,49,Wunderground v.1.15,2013-04-05 00:10:00,
2013-04-04 19:15:00,54.9,44.9,30.13,East,95,1.0,1.0,69,0.00,,,0.01,21,Wunderground v.1.15,2013-04-05 00:15:00,
2013-04-04 19:21:00,54.6,45.0,30.13,East,80,1.0,1.0,70,0.00,,,0.01,19,Wunderground v.1.15,2013-04-05 00:21:00,
2013-04-04 19:26:00,54.2,44.6,30.14,ENE,78,0.0,1.0,70,0.00,,,0.01,16,Wunderground v.1.15,2013-04-05 00:26:00,
2013-04-04 19:32:00,53.9,44.7,30.14,ENE,78,0.0,0.0,71,0.00,,,0.01,14,Wunderground v.1.15,2013-04-05 00:32:00,
2013-04-04 19:37:00,53.5,44.7,30.14,ENE,72,0.0,2.0,72,0.00,,,0.01,12,Wunderground v.1.15,2013-04-05 00:37:00,
2013-04-04 19:43:00,53.2,44.8,30.14,ENE,72,0.0,0.0,73,0.00,,,0.01,9,Wunderground v.1.15,2013-04-05 00:43:00,
2013-04-04 19:48:00,52.9,44.8,30.14,ENE,72,0.0,0.0,74,0.00,,,0.01,7,Wunderground v.1.15,2013-04-05 00:48:00,
2013-04-04 19:54:00,52.5,44.8,30.14,ENE,72,0.0,0.0,75,0.00,,,0.01,0,Wunderground v.1.15,2013-04-05 00:54:00,
2013-04-04 20:00:00,52.2,44.9,30.15,ENE,72,0.0,0.0,76,0.00,,,0.01,0,Wunderground v.1.15,2013-04-05 01:00:00,
2013-04-04 20:06:00,51.8,45.5,30.15,ENE,72,0.0,0.0,79,0.00,,,0.01,0,Wunderground v.1.15,2013-04-05 01:06:00,
2013-04-04 20:13:00,51.1,45.1,30.15,ENE,72,0.0,0.0,80,0.00,,,0.01,0,Wunderground v.1.15,2013-04-05 01:13:00,
2013-04-04 20:18:00,50.6,45.0,30.15,ENE,72,0.0,0.0,81,0.00,,,0.01,0,Wunderground v.1.15,2013-04-05 01:18:00,
2013-04-04 20:24:00,50.0,44.7,30.15,ENE,72,0.0,0.0,82,0.00,,,0.01,0,Wunderground v.1.15,2013-04-05 01:24:00,
2013-04-04 20:29:00,49.6,44.3,30.16,ENE,72,0.0,0.0,82,0.00,,,0.01,0,Wunderground v.1.15,2013-04-05 01:29:00,
2013-04-04 20:34:00,49.0,44.4,30.16,ENE,72,0.0,0.0,84,0.00,,,0.01,0,Wunderground v.1.15,2013-04-05 01:34:00,
2013-04-04 20:40:00,48.5,43.9,30.16,ENE,72,0.0,0.0,84,0.00,,,0.01,0,Wunderground v.1.15,2013-04-05 01:40:00,
2013-04-04 20:45:00,48.1,43.8,30.16,ENE,72,0.0,0.0,85,0.00,,,0.01,0,Wunderground v.1.15,2013-04-05 01:45:00,
2013-04-04 20:50:00,47.7,43.7,30.16,ENE,72,0.0,0.0,86,0.00,,,0.01,0,Wunderground v.1.15,2013-04-05 01:50:00,
2013-04-04 20:57:00,46.9,43.2,30.16,ENE,72,0.0,1.0,87,0.00,,,0.01,0,Wunderground v.1.15,2013-04-05 01:57:00,
2013-04-04 21:02:00,46.3,42.9,30.16,ENE,72,0.0,0.0,88,0.00,,,0.01,0,Wunderground v.1.15,2013-04-05 02:02:00,
2013-04-04 21:08:00,45.9,42.8,30.17,ENE,72,0.0,0.0,89,0.00,,,0.01,0,Wunderground v.1.15,2013-04-05 02:08:00,
2013-04-04 21:13:00,45.7,42.9,30.17,ENE,72,0.0,0.0,90,0.00,,,0.01,0,Wunderground v.1.15,2013-04-05 02:13:00,
2013-04-04 21:19:00,45.5,43.0,30.17,ENE,72,0.0,0.0,91,0.00,,,0.01,0,Wunderground v.1.15,2013-04-05 02:19:00,
2013-04-04 21:25:00,45.3,42.8,30.18,ENE,72,0.0,0.0,91,0.00,,,0.01,0,Wunderground v.1.15,2013-04-05 02:25:00,
2013-04-04 21:32:00,45.0,42.8,30.18,ENE,72,0.0,0.0,92,0.00,,,0.01,0,Wunderground v.1.15,2013-04-05 02:32:00,
2013-04-04 21:37:00,44.9,42.4,30.18,ENE,72,0.0,0.0,91,0.00,,,0.01,0,Wunderground v.1.15,2013-04-05 02:37:00,
2013-04-04 21:43:00,44.6,42.1,30.18,ENE,72,0.0,0.0,91,0.00,,,0.01,0,Wunderground v.1.15,2013-04-05 02:43:00,
2013-04-04 21:49:00,44.2,41.7,30.18,ENE,72,0.0,0.0,91,0.00,,,0.01,0,Wunderground v.1.15,2013-04-05 02:49:00,
2013-04-04 21:54:00,43.9,41.4,30.19,ENE,72,0.0,0.0,91,0.00,,,0.01,0,Wunderground v.1.15,2013-04-05 02:54:00,
2013-04-04 22:00:00,43.6,41.4,30.19,ENE,72,0.0,0.0,92,0.00,,,0.01,0,Wunderground v.1.15,2013-04-05 03:00:00,
2013-04-04 22:06:00,43.2,41.0,30.20,ENE,72,0.0,0.0,92,0.00,,,0.01,0,Wunderground v.1.15,2013-04-05 03:06:00,
2013-04-04 22:12:00,42.7,40.5,30.20,ENE,72,0.0,0.0,92,0.00,,,0.01,0,Wunderground v.1.15,2013-04-05 03:12:00,
2013-04-04 22:17:00,42.3,40.4,30.20,ENE,72,0.0,0.0,93,0.00,,,0.01,0,Wunderground v.1.15,2013-04-05 03:17:00,
2013-04-04 22:22:00,42.0,40.1,30.20,ENE,72,0.0,0.0,93,0.00,,,0.01,0,Wunderground v.1.15,2013-04-05 03:22:00,
2013-04-04 22:27:00,41.9,40.3,30.19,ENE,72,0.0,0.0,94,0.00,,,0.01,0,Wunderground v.1.15,2013-04-05 03:27:00,
2013-04-04 22:33:00,41.9,40.6,30.20,ENE,72,0.0,0.0,95,0.00,,,0.01,0,Wunderground v.1.15,2013-04-05 03:33:00,
2013-04-04 22:38:00,41.9,40.8,30.21,ENE,72,0.0,0.0,96,0.00,,,0.01,0,Wunderground v.1.15,2013-04-05 03:38:00,
2013-04-04 22:43:00,41.9,40.6,30.20,ENE,72,0.0,0.0,95,0.00,,,0.01,0,Wunderground v.1.15,2013-04-05 03:43:00,
2013-04-04 22:48:00,41.9,40.6,30.20,ENE,72,0.0,0.0,95,0.00,,,0.01,0,Wunderground v.1.15,2013-04-05 03:48:00,
2013-04-04 22:54:00,41.8,40.2,30.20,ENE,72,0.0,0.0,94,0.00,,,0.01,0,Wunderground v.1.15,2013-04-05 03:54:00,
2013-04-04 23:00:00,41.5,39.9,30.21,ENE,72,0.0,0.0,94,0.00,,,0.01,0,Wunderground v.1.15,2013-04-05 04:00:00,
2013-04-04 23:01:00,41.4,39.8,30.21,ENE,72,0.0,0.0,94,0.00,,,0.01,0,Wunderground v.1.15,2013-04-05 04:01:00,
2013-04-04 23:03:00,41.4,39.8,30.21,ENE,72,0.0,0.0,94,0.00,,,0.01,0,Wunderground v.1.15,2013-04-05 04:03:00,
2013-04-04 23:07:00,41.2,39.6,30.21,ENE,72,0.0,0.0,94,0.00,,,0.01,0,Wunderground v.1.15,2013-04-05 04:07:00,
2013-04-04 23:12:00,41.1,39.5,30.21,ENE,72,0.0,0.0,94,0.00,,,0.01,0,Wunderground v.1.15,2013-04-05 04:12:00,
2013-04-04 23:17:00,40.9,39.6,30.21,ENE,72,0.0,0.0,95,0.00,,,0.01,0,Wunderground v.1.15,2013-04-05 04:17:00,
2013-04-04 23:22:00,40.8,39.5,30.21,ENE,72,0.0,0.0,95,0.00,,,0.01,0,Wunderground v.1.15,2013-04-05 04:22:00,
2013-04-04 23:28:00,40.7,39.4,30.22,ENE,72,0.0,0.0,95,0.00,,,0.01,0,Wunderground v.1.15,2013-04-05 04:28:00,
2013-04-04 23:34:00,40.6,39.5,30.22,ENE,72,0.0,0.0,96,0.00,,,0.01,0,Wunderground v.1.15,2013-04-05 04:34:00,
2013-04-04 23:40:00,40.6,39.5,30.22,ENE,72,0.0,0.0,96,0.00,,,0.01,0,Wunderground v.1.15,2013-04-05 04:40:00,
2013-04-04 23:45:00,40.6,39.5,30.22,ENE,72,0.0,0.0,96,0.00,,,0.01,0,Wunderground v.1.15,2013-04-05 04:45:00,
2013-04-04 23:51:00,40.1,38.5,30.22,ENE,72,0.0,0.0,94,0.00,,,0.01,0,Wunderground v.1.15,2013-04-05 04:51:00,
2013-04-04 23:56:00,39.7,38.1,30.22,ENE,72,0.0,0.0,94,0.00,,,0.01,0,Wunderground v.1.15,2013-04-05 04:56:00,